"Pseudo-MPEC" for 2018-045D = NORAD 43473 = Queqiao booster

Created 2018 May 28 17:23:31 UT using Find_Orb

Click here for an explanation of pseudo-MPECs

Click here for the pseudo-MPEC for the Queqiao payload

Click here for a more recent pseudo-MPEC for this booster, based on further observations of this object.

TLEs are available for this and other objects on these pages. Also, you can get ephems for this object from the Minor Planet Center's DASO Page.

With additional data, we have a well-defined lunar miss distance of 11931 +/- 1 km, as well as a good post-flyby geocentric orbit.. The new observations don't link well with the old observations; it's safe to assume that the booster released some leftover propellant. I won't be surprised if further observations show that we have to reject even more of the early observations.

You can click here for customized ephemerides for Queqiao, its booster, and some other objects, courtesy of the Minor Planet Center.

 
 Astrometry: 
     ZK1AE47  C2018 05 21.19239 11 33 48.28 -18 03 51.7         x13.0 GU     703
     ZK1AE47  C2018 05 21.19772 11 34 20.49 -17 54 51.8         x12.9 GU     703
     ZK1AE47  C2018 05 21.20304 11 34 52.20 -17 46 02.4         x13.0 GU     703
     ZK1AE47  C2018 05 21.20837 11 35 23.56 -17 37 21.8         x13.0 GU     703
     ZK1AE47 KC2018 05 21.92391112 25 39.65 -10 57 58.6         x15.3 G      J95
     ZK1AE47 KC2018 05 21.92510612 25 40.07 -10 57 35.1         x15.4 G      J95
     ZK1AE47 KC2018 05 21.92556612 25 40.24 -10 57 26.3         x15.3 G      J95
     ZK1AE47 KC2018 05 21.92601712 25 40.41 -10 57 17.3         x15.2 G      J95
     A106ZsZ  C2018 05 22)-Astrometryc2Y$qe3dxaPtsE!_2fo'Q[KT`icSrJp^]O/IOBg'T08
     A106ZsZ  C2018 05 22]q!1pVp(C?0NT5):$redacted;FHPqhTGwWvtD#1oYBe5mHXf2aAT08
     A106ZsZ  C2018 05 22Gj5%j]/aVQ#(MTr14Aj0-#U8jAy1hCFGsee4^VO:aEqisKFk]42'T08
     A106ZsZ  C2018 05 22DsaH(8IS#kQ#8?aHnU/:My3REXiYDqWX%2qJ@NoqR.6mV*#NEOCPT08
     queqia1  C2018 05 22.69634 12 42 42.68 -08 13 37.8          16.1 G      C42
     queqia1  C2018 05 22.69795 12 42 42.20 -08 13 21.1          16.1 G      C42
     queqia1  C2018 05 22.69951 12 42 41.74 -08 13 04.4          16.0 G      C42
     queqia1  C2018 05 22.70106 12 42 41.32 -08 12 48.9          16.2 G      C42
     queqia1  C2018 05 22.70267 12 42 40.89 -08 12 32.4          16.0 G      C42
     queqia1  C2018 05 22.70426 12 42 40.49 -08 12 15.8          16.0 G      C42
     queqia1  C2018 05 22.70588 12 42 40.05 -08 11 58.0          16.0 G      C42
     queqia1  C2018 05 22.70750 12 42 39.63 -08 11 41.8          16.0 G      C42
     queqia1  C2018 05 22.70913 12 42 39.27 -08 11 24.7          16.1 G      C42
     queqia1  C2018 05 22.71073 12 42 38.89 -08 11 08.2          16.0 G      C42
     ZK1AE47 KC2018 05 22.89616112 46 59.70 -07 52 22.6          16.1 GV     J95
     ZK1AE47 KC2018 05 22.89682812 46 59.48 -07 52 17.0          16.3 GV     J95
     ZK1AE47 KC2018 05 22.89750712 46 59.27 -07 52 11.4          16.2 GV     J95
     ZK1AE47 KC2018 05 22.89818412 46 59.09 -07 52 05.4          16.2 GV     J95
2018-045D    KC2018 05 23.84140 12 58 50.51 -06 02 41.2          16.9 Vq     C95
2018-045D    KC2018 05 23.85102 12 58 45.01 -06 01 47.6          16.6 Vq     C95
2018-045D    KC2018 05 23.86064 12 58 39.50 -06 00 52.9          17.0 Vq     C95
2018-045D    KC2018 05 23.87026 12 58 34.04 -05 59 57.1          17.0 Vq     C95
2018-045D    KC2018 05 23.87989 12 58 28.61 -05 59 00.8          16.9 Vq     C95
2018-045D    KC2018 05 23.88950 12 58 23.34 -05 58 03.2          17.1 Vq     C95
2018-045D    KC2018 05 27.94147413 58 07.37 +01 27 28.2          15.9 GV     J95
2018-045D    KC2018 05 27.94278013 58 08.90 +01 27 40.0          16.0 GV     J95
2018-045D    KC2018 05 27.94403313 58 10.41 +01 27 51.3          15.9 GV     J95

Station data:
(703) Catalina Sky Survey  (N32.417006 W110.732640)  US/Arizona.  Observer G.
   J. Leonard. Measurers B. M. Africano, E. J. Christensen, D. C. Fuls, A. R.
   Gibbs, A. D. Grauer, H. Groeller, J. A. Johnson, R. A. Kowalski, S. M.
   Larson, G. J. Leonard, R. L. Seaman, F. C. Shelly. 0.68-m Schmidt + 10K
   CCD.
(C42) Xingming Observatory,  Mt. Nanshan  (N43.471021 E87.177800)  China.
   Observers H. Tan, X. Gao, P. Sun. Measurers Z. Xu, P. Sun, M.-T. Hui.
   0.5-m f/4 reflector + CCD.
(C95) SATINO Remote Observatory, Haute Provence  (N43.932042 E5.712390)
   France.  Observer J. Jahn. 0.60-m f/3.2 Newton + CCD.
(J95) Great Shefford  (N51.474969 W1.447003)  UK.  Observer P. Birtwhistle.
   0.40-m f/6.0 Schmidt-Cassegrain + CCD.
(T08) ATLAS-MLO, Mauna Loa  (N19.535772 W155.576400)  US/Hawaii.

Orbital elements (geocentric):  2018-045D = NORAD 43473 = Queqiao booster
   Perigee 2018 May 29.379890 +/- 6.17e-5 TT =  9:07:02 (JD 2458267.879890)
Epoch 2018 May 28.0 TT = JDT 2458266.5                        Gray
M 322.62239 +/- 0.0016              (J2000 equator)
n  27.08737893 +/- 8.97e-5          Peri.  165.17331 +/- 0.00017
a237005.732 +/- 0.524               Node   200.19469 +/- 0.00031
e   0.9056983 +/- 3.76e-6           Incl.   15.40729 +/- 0.00042
P  13.29d                  H 28.3   G  0.15   U  6.5
q 22350.0295 +/- 0.912    Q 451661.435 +/- 1.04
23 of 35 observations 2018 May 22-27; mean residual 0".446

Orbital elements (lunicentric):  2018-045D = NORAD 43473 = Queqiao booster
   Perilune 2018 May 25.586655 +/- 1.74e-5 TT = 14:04:47 (JD 2458264.086655)
Epoch 2018 May 25.5 TT = JDT 2458264.0                        Gray
q 11931.2880 +/- 0.928              (J2000 ecliptic)
H   28.3  G 0.15                    Peri.  351.06767 +/- 0.0043
                                    Node   173.28636 +/- 0.0045
e   2.8937239 +/- 0.000121          Incl.  171.87030 +/- 0.00032
23 of 35 observations 2018 May 22-27; mean residual 0".446

Orbital elements (geocentric,  shortly after launch):  2018-045D = NORAD 43473 = Queqiao booster
   Perigee 2018 May 20.912543 +/- 0.00012 TT = 21:54:03 (JD 2458259.412543)
Epoch 2018 May 22.0 TT = JDT 2458260.5                        Gray
M  36.14764 +/- 0.010               (J2000 equator)
n  33.24054512 +/- 0.0106           Peri.  174.65323 +/- 0.0024
a206771.850 +/- 43.9                Node   204.66325 +/- 0.00007
e   0.9682628 +/- 5.68e-6           Incl.   28.46126 +/- 0.0006
P  10.83d                  H 28.1   G  0.15   U  9.7
q 6562.34720 +/- 1.93    Q 406981.353 +/- 86.2
22 of 26 observations 2018 May 21-22 (23.4 hr); mean residual 0".230

The object had some non-gravitational forces acting on it in the days after launch, probably remaining fuel boiling off. The final set of elements above is based on observations as the object went from the earth to the moon.

Residuals in arcseconds: 
180521 703( 112+ 16.1+)   180522 C42 .917+ .729-    180522 J95 .434- .040-
180521 703( 108+ 12.4+)   180522 C42 .749+ .646-    180522 J95 .178- .227+
180521 703( 105+ 10.9+)   180522 C42 .498+ .073-    180523 C95 .182+ .251+
180521 703( 103+ 10.6+)   180522 C42 .634+ .621-    180523 C95 .257+ .085+
180521 J95(8.97+ 3.85-)   180522 C42 .694+ .816-    180523 C95 .297+ .057+
180521 J95(8.73+ 3.58-)   180522 C42 .941+ .728-    180523 C95 .579+ .177+
180521 J95(8.74+ 3.73-)   180522 C42 .526+ .222+    180523 C95 .277+ .199-
180521 J95(8.78+ 3.49-)   180522 C42 .219+ .453-    180523 C95 .476+ .073-
180522 T08(2.38+ 2.10-)   180522 C42 .646+ .357-    180527 J95 .197+ .184-
180522 T08(2.48+ 1.96-)   180522 C42 .477+ .572-    180527 J95 .190- .014+
180522 T08(2.37+ 1.60-)   180522 J95 .098+ .144+    180527 J95 5.8m- .178+
180522 T08(2.23+ 1.81-)   180522 J95 .264- .105+

